[[[{"header":{"parameterUnit":"kt","parameterCategory":2,"dx":1,"dy":1,"la1":30.253999710083008,"la2":30.299108505249023,"lo1":-89.0895004272461,"lo2":-89.04439544677734,"nx":28,"ny":28,"refTime":"2022-10-14T21:00:00:Z","depth":"0","parameterNumber":2,"parameterNumberName":"U-component_of_CURRENTS"},"data":[0.4264,0.417,0.42,0.4051,0.4024,0.3873,0.3837,0.3796,0.3849,0.3844,0.3858,0.3934,0.3806,0.3355,0.29,0.2846,0.2575,0.2471,0.2608,0.2947,0.3035,0.3119,0.2873,0.2283,0.2282,0.1476,0.1469,0.1464,0.4432,0.4437,0.4374,0.4316,0.4252,0.4292,0.4242,0.4168,0.4174,0.4322,0.4425,0.4421,0.438,0.4412,0.4248,0.4048,0.3895,0.3806,0.3342,0.3344,0.4147,0.3923,0.3546,0.3547,0.3547,0.3547,0.3548,0.3548,0.4731,0.4674,0.4643,0.4576,0.4536,0.4485,0.4401,0.4432,0.4429,0.4462,0.4667,0.4792,0.49,0.5344,0.5428,0.5096,0.5338,0.4821,0.486,0.4744,0.447,0.5408,0.5418,0.5422,0.5426,0.543,0.5433,0,0.4934,0.4952,0.4878,0.4825,0.4773,0.4685,0.4638,0.4633,0.4671,0.4704,0.4806,0.4946,0.5294,0.5415,0.578,0.5907,0.5514,0.5869,0.5492,0.4744,0.4487,0.4428,0.5431,0.5411,0.5416,0.542,0.5422,0.5424,0.5174,0.5108,0.5055,0.4999,0.4962,0.4881,0.4827,0.484,0.4813,0.4873,0.4867,0.5056,0.5198,0.5619,0.5823,0.6159,0.591,0.5969,0.5803,0.5396,0.5418,0.5248,0.5157,0.5477,0.547,0.5464,0.546,0,0.5279,0.5273,0.5156,0.5097,0.5073,0.4998,0.4932,0.489,0.4917,0.4895,0.4912,0.5016,0.5235,0.5469,0.5768,0.5879,0.5894,0.6201,0.5825,0.5831,0.5489,0.5467,0.5234,0.5119,0.6333,0.6333,0.6334,0,0.5415,0.5315,0.529,0.5224,0.5119,0.5089,0.5003,0.4981,0.4983,0.4954,0.5029,0.5054,0.5248,0.5429,0.563,0.5871,0.5905,0.5983,0.6044,0.5707,0.5679,0.5374,0.5334,0.603,0.6027,0.6025,0.6024,0,0.5572,0.5409,0.5316,0.5268,0.5169,0.5136,0.5091,0.5063,0.5031,0.5055,0.5068,0.5155,0.5224,0.5393,0.5622,0.5597,0.5882,0.5874,0.599,0.5994,0.5744,0.5721,0.5318,0.6021,0.602,0.6019,0.6018,0,0.5655,0.5578,0.5421,0.5342,0.5293,0.5214,0.515,0.5084,0.5087,0.5102,0.5135,0.5203,0.5268,0.5315,0.5529,0.5478,0.5632,0.5737,0.5751,0.575,0.5813,0.5711,0.5642,0.5238,0.5953,0.5951,0.5949,0,0.5845,0.5665,0.5638,0.5467,0.5369,0.5356,0.5286,0.524,0.5236,0.522,0.5275,0.5288,0.5342,0.538,0.5416,0.557,0.5629,0.5528,0.5816,0.5826,0.5811,0.5792,0.542,0.5626,0.5925,0.5927,0.5929,0,0.5987,0.5883,0.5845,0.5792,0.5657,0.5574,0.5485,0.5408,0.5387,0.5351,0.5339,0.5345,0.5411,0.5423,0.5482,0.5511,0.56,0.5596,0.5602,0.573,0.5804,0.5768,0.5783,0.5631,0.5632,0.5632,0.591,0,0.6155,0.606,0.598,0.5833,0.5762,0.5649,0.5591,0.5545,0.5545,0.5528,0.5525,0.5546,0.5561,0.5562,0.5598,0.5604,0.5686,0.5696,0.5727,0.568,0.5812,0.5826,0.5677,0.5679,0.568,0.5681,0,0,0.6322,0.6201,0.6153,0.6032,0.5968,0.5944,0.5827,0.5779,0.5696,0.5693,0.5719,0.5714,0.5727,0.5711,0.5694,0.5689,0.5774,0.5685,0.5688,0.5688,0.5689,0.5811,0.5823,0.5684,0.5684,0.5685,0.5685,0,0.6365,0.6311,0.6202,0.6129,0.6018,0.597,0.5945,0.5844,0.5832,0.5752,0.582,0.5827,0.5778,0.5793,0.5799,0.5712,0.5815,0.5722,0.5635,0.5698,0.5696,0.5695,0.5814,0.5824,0.5688,0.5688,0.5688,0,0.6467,0.6393,0.6344,0.6209,0.6137,0.6029,0.6073,0.597,0.5909,0.5971,0.5889,0.5929,0.5945,0.5893,0.5876,0.5881,0.5849,0.5813,0.5805,0.5801,0.5869,0.5866,0.5863,0.5908,0.5908,0.5909,0,0,0.6487,0.6401,0.6304,0.6208,0.6158,0.6094,0.6043,0.6024,0.5979,0.5966,0.5961,0.5961,0.5966,0.5944,0.594,0.5859,0.5928,0.5838,0.5827,0.5819,0.581,0.5874,0.587,0.5911,0.5911,0.5911,0,0,0.65,0.6384,0.638,0.626,0.6182,0.6085,0.6023,0.6024,0.5987,0.6,0.603,0.6032,0.6007,0.5997,0.6024,0.5946,0.5991,0.5984,0.5939,0.5926,0.5916,0.5913,0.608,0,0,0,0,0,0.648,0.6393,0.639,0.6361,0.6202,0.608,0.606,0.6037,0.6073,0.603,0.6041,0.6076,0.6021,0.6045,0.6036,0.6003,0.5939,0.5934,0.593,0.5856,0.5843,0.5832,0,0,0,0,0,0,0.6468,0.6432,0.6392,0.6291,0.6255,0.6083,0.6135,0.6126,0.6078,0.6084,0.6069,0.6075,0.6088,0.6051,0.6042,0.6011,0.6083,0.5937,0.5933,0.5929,0.5852,0.5841,0.5831,0,0,0,0,0,0.6458,0.6429,0.6184,0.6292,0.6261,0.6204,0.614,0.6132,0.6099,0.6089,0.6093,0.6089,0.6085,0.6082,0.6046,0.6015,0.6089,0.6086,0.5935,0.5931,0.5928,0.5846,0,0,0,0,0,0,0.6451,0.642,0.6177,0.6166,0.6338,0.6214,0.6195,0.6138,0.6109,0.6107,0.6112,0.6118,0.6082,0.608,0.6077,0.6015,0.6094,0.609,0.6088,0.5932,0.5929,0.5927,0,0,0,0,0,0,0.6435,0.6411,0.6171,0.623,0.6226,0.6223,0.6206,0.6159,0.6113,0.6136,0.6137,0.6116,0.6125,0.6078,0.6076,0.5999,0.6097,0.6094,0.6092,0.6091,0.593,0.5928,0,0,0,0,0,0,0.6424,0.6403,0.6233,0.623,0.6226,0.6103,0.6186,0.6048,0.6086,0.614,0.6097,0.6103,0.6125,0.612,0.6075,0.5998,0.5998,0.6097,0.6095,0.6094,0.6093,0,0,0,0,0,0,0,0.6415,0.6563,0.6241,0.6229,0.6226,0.6066,0.6063,0.606,0.6087,0.6092,0.6096,0.61,0.6115,0.6112,0.6108,0.5997,0,0,0.6098,0.6096,0,0,0,0,0,0,0,0,0.6571,0.6565,0.6241,0.6238,0.6236,0.6066,0.6063,0.6061,0.6088,0.6092,0.6095,0.6099,0.6114,0.6112,0.6109,0,0,0,0,0,0,0,0,0,0,0,0,0,0,0,0.624,0.6239,0,0.6065,0.6063,0.6061,0.6088,0.6091,0.6094,0.6097,0.6114,0.6111,0.6109,0,0,0,0,0,0,0,0,0,0,0,0,0,0,0,0,0,0,0,0,0,0,0,0,0,0,0,0,0,0,0,0,0,0,0,0,0,0,0,0,0,0,0,0,0,0,0,0,0,0,0,0,0,0,0,0,0,0,0,0,0,0,0,0,0,0,0,0,0]}],[{"header":{"parameterUnit":"kt","parameterCategory":2,"dx":1,"dy":1,"la1":30.253999710083008,"la2":30.299108505249023,"lo1":-89.0895004272461,"lo2":-89.04439544677734,"nx":28,"ny":28,"refTime":"2022-10-14T21:00:00:Z","depth":"0","parameterNumber":3,"parameterNumberName":"V-component_of_CURRENTS"},"data":[-0.0535,-0.0472,-0.0472,-0.0262,-0.0168,0.0056,0.021,0.0476,0.076,0.1248,0.1588,0.1832,0.1842,0.1362,0.0972,0.0851,0.0642,0.0664,0.0497,0.0534,0.0526,0.0519,0.0494,0.0581,0.0581,0.0459,0.0457,0.0456,-0.0639,-0.0632,-0.055,-0.0442,-0.0313,-0.0295,-0.0062,0.013,0.0491,0.0837,0.1162,0.1536,0.158,0.1443,0.1218,0.0969,0.0851,0.0798,0.0747,0.0722,0.0853,0.0849,0.1014,0.1014,0.1014,0.1014,0.1014,0.1014,-0.0819,-0.0768,-0.0719,-0.0629,-0.0537,-0.0387,-0.0231,-0.004,0.0239,0.0619,0.0731,0.1106,0.1212,0.126,0.1108,0.0901,0.085,0.0812,0.0725,0.0696,0.0672,0.0762,0.0974,0.0973,0.0971,0.097,0.0969,0,-0.095,-0.0946,-0.0871,-0.079,-0.0698,-0.0565,-0.0407,-0.0288,-0.0071,0.0149,0.0466,0.0656,0.0821,0.0978,0.0953,0.0891,0.0642,0.0727,0.0579,0.0589,0.0522,0.0478,0.0532,0.078,0.0777,0.0775,0.0774,0.0772,-0.11,-0.1051,-0.0959,-0.0904,-0.0848,-0.0713,-0.0602,-0.0456,-0.0304,-0.001,0.0121,0.0326,0.0541,0.0675,0.065,0.0657,0.0511,0.0668,0.0576,0.0406,0.0296,0.0245,0.0216,0.0743,0.0747,0.075,0.0752,0,-0.116,-0.115,-0.1034,-0.0922,-0.0887,-0.078,-0.0603,-0.0468,-0.033,-0.0101,-0.0041,0.0148,0.0303,0.0331,0.0417,0.0355,0.0387,0.0398,0.0465,0.0467,0.0336,0.0242,0.0395,0.0381,0.0447,0.0449,0.045,0,-0.1235,-0.1148,-0.1097,-0.1037,-0.0905,-0.0816,-0.065,-0.0542,-0.037,-0.0196,-0.0133,0.0025,0.0067,0.0169,0.013,0.021,0.0245,0.0169,0.0163,0.024,0.0243,0.0153,0.0059,0.0184,0.0183,0.0183,0.0182,0,-0.1304,-0.1185,-0.1109,-0.106,-0.0919,-0.0844,-0.0759,-0.0597,-0.0486,-0.0317,-0.0221,-0.0091,-0.0003,0.0028,0.004,-0.0025,0.0168,0.008,0.0099,0.0097,0.0218,0.022,0.03,0.0181,0.0181,0.018,0.018,0,-0.1333,-0.1274,-0.1175,-0.1033,-0.099,-0.0923,-0.074,-0.0655,-0.0495,-0.0436,-0.0321,-0.0283,-0.0152,-0.0236,-0.01,-0.0161,-0.0166,-0.0156,-0.0152,-0.0128,-0.0215,-0.0034,0.0153,0.0026,-0.0176,-0.0178,-0.018,0,-0.1397,-0.1304,-0.1258,-0.1139,-0.1068,-0.0999,-0.0904,-0.0808,-0.0736,-0.062,-0.0548,-0.0443,-0.0498,-0.0447,-0.0382,-0.034,-0.028,-0.0369,-0.0284,-0.0281,-0.0273,-0.0117,-0.0004,0.0104,-0.0213,-0.0209,-0.0207,0,-0.1438,-0.1355,-0.1334,-0.1268,-0.1172,-0.1128,-0.1037,-0.0929,-0.0842,-0.0804,-0.0678,-0.0592,-0.0578,-0.0531,-0.0516,-0.0449,-0.0341,-0.0499,-0.0497,-0.047,-0.0195,-0.017,-0.0146,-0.0344,-0.034,-0.0336,-0.0233,0,-0.1419,-0.1379,-0.1361,-0.1261,-0.1219,-0.1178,-0.1114,-0.107,-0.1047,-0.1002,-0.0883,-0.0845,-0.0748,-0.0731,-0.0734,-0.0588,-0.0624,-0.0644,-0.0671,-0.0577,-0.0551,-0.0531,-0.0794,-0.0795,-0.0796,-0.0797,0,0,-0.144,-0.1404,-0.1379,-0.1322,-0.128,-0.127,-0.1212,-0.1183,-0.1144,-0.1093,-0.1128,-0.0983,-0.0962,-0.0814,-0.0785,-0.079,-0.0771,-0.0786,-0.0637,-0.062,-0.0603,-0.0573,-0.0552,-0.0799,-0.08,-0.08,-0.0801,0,-0.1415,-0.1413,-0.1381,-0.1342,-0.1301,-0.1275,-0.127,-0.1239,-0.1213,-0.1159,-0.1138,-0.1074,-0.102,-0.0947,-0.0907,-0.0819,-0.082,-0.0816,-0.0731,-0.0651,-0.0632,-0.0615,-0.0581,-0.0561,-0.0803,-0.0803,-0.0803,0,-0.1388,-0.1365,-0.1362,-0.1335,-0.1316,-0.1269,-0.1292,-0.1279,-0.1234,-0.1245,-0.1183,-0.1159,-0.1109,-0.1029,-0.0998,-0.1015,-0.0864,-0.0927,-0.0921,-0.0893,-0.0812,-0.079,-0.0771,-0.1017,-0.1017,-0.1018,0,0,-0.1353,-0.1336,-0.1311,-0.133,-0.131,-0.1296,-0.1292,-0.1282,-0.126,-0.125,-0.1226,-0.1186,-0.1129,-0.1101,-0.1062,-0.1001,-0.0978,-0.0953,-0.0943,-0.0934,-0.0903,-0.082,-0.0799,-0.1021,-0.1021,-0.1021,0,0,-0.1347,-0.1311,-0.1303,-0.1321,-0.1299,-0.1286,-0.1284,-0.1283,-0.1255,-0.1252,-0.1233,-0.1224,-0.1159,-0.115,-0.1185,-0.1054,-0.1096,-0.1089,-0.1053,-0.1041,-0.1031,-0.1001,-0.1187,0,0,0,0,0,-0.1292,-0.1311,-0.1303,-0.1305,-0.1305,-0.1288,-0.1285,-0.128,-0.1289,-0.1278,-0.1251,-0.1252,-0.115,-0.1181,-0.1173,-0.1113,-0.1052,-0.1047,-0.1041,-0.0982,-0.0969,-0.0958,0,0,0,0,0,0,-0.1293,-0.1295,-0.1303,-0.1294,-0.1294,-0.1288,-0.1292,-0.129,-0.1289,-0.1288,-0.1256,-0.1251,-0.1231,-0.1184,-0.1178,-0.112,-0.1189,-0.105,-0.1045,-0.1041,-0.0978,-0.0967,-0.0958,0,0,0,0,0,-0.1293,-0.1295,-0.13,-0.1293,-0.1293,-0.1288,-0.1292,-0.129,-0.1286,-0.126,-0.1254,-0.1283,-0.1231,-0.1224,-0.118,-0.1122,-0.1193,-0.1191,-0.1047,-0.1043,-0.104,-0.0972,0,0,0,0,0,0,-0.1294,-0.1284,-0.1299,-0.1298,-0.1296,-0.1287,-0.1287,-0.129,-0.1256,-0.1252,-0.1285,-0.1284,-0.1231,-0.1226,-0.122,-0.1122,-0.1197,-0.1195,-0.1193,-0.1044,-0.1041,-0.1039,0,0,0,0,0,0,-0.1283,-0.1283,-0.1298,-0.1302,-0.1302,-0.1287,-0.1286,-0.126,-0.1255,-0.1282,-0.1281,-0.1285,-0.1235,-0.1227,-0.1222,-0.1182,-0.12,-0.1198,-0.1196,-0.1195,-0.1042,-0.1039,0,0,0,0,0,0,-0.1283,-0.1283,-0.1302,-0.1302,-0.1301,-0.129,-0.1261,-0.1256,-0.1276,-0.1282,-0.1277,-0.1277,-0.1236,-0.1231,-0.1224,-0.1186,-0.1183,-0.12,-0.1198,-0.1197,-0.1196,0,0,0,0,0,0,0,-0.1283,-0.1287,-0.1308,-0.1301,-0.1301,-0.1293,-0.1292,-0.1292,-0.1277,-0.1277,-0.1277,-0.1277,-0.1214,-0.1211,-0.1209,-0.1189,0,0,-0.12,-0.1199,0,0,0,0,0,0,0,0,-0.1286,-0.1287,-0.1308,-0.1308,-0.1308,-0.1293,-0.1292,-0.1292,-0.1277,-0.1277,-0.1277,-0.1277,-0.1213,-0.1211,-0.1209,0,0,0,0,0,0,0,0,0,0,0,0,0,0,0,-0.1308,-0.1308,0,-0.1293,-0.1292,-0.1292,-0.1277,-0.1277,-0.1277,-0.1277,-0.1213,-0.1211,-0.1209,0,0,0,0,0,0,0,0,0,0,0,0,0,0,0,0,0,0,0,0,0,0,0,0,0,0,0,0,0,0,0,0,0,0,0,0,0,0,0,0,0,0,0,0,0,0,0,0,0,0,0,0,0,0,0,0,0,0,0,0,0,0,0,0,0,0,0,0,0]}]],[[{"header":{"parameterUnit":"kt","parameterCategory":2,"dx":1,"dy":1,"la1":30.253999710083008,"la2":30.299108505249023,"lo1":-89.0895004272461,"lo2":-89.04439544677734,"nx":28,"ny":28,"refTime":"2022-10-14T21:00:00:Z","depth":"2","parameterNumber":2,"parameterNumberName":"U-component_of_CURRENTS"},"data":[0.4383,0.4346,0.4355,0.4326,0.4431,0.437,0.4328,0.3911,0.3581,0.2865,0.247,0.2407,0.2488,0.1972,0.2039,0.1904,0.2459,0.1851,0.3074,0.3385,0.3495,0.3917,0.3563,0,0,0,0,0,0.4463,0.4512,0.4604,0.4689,0.4704,0.4878,0.486,0.463,0.4328,0.4043,0.3848,0.3209,0.2817,0.2925,0.2709,0.2704,0.2848,0.2717,0.2892,0.3019,0.3133,0.282,0.1878,0.1875,0.1871,0.1868,0,0,0.46,0.4652,0.4759,0.4865,0.4988,0.5001,0.499,0.4945,0.4859,0.4646,0.4845,0.443,0.4379,0.3827,0.3832,0.3903,0.4265,0.4168,0.4225,0.4296,0.4028,0.3814,0.3412,0.3419,0.3424,0.3429,0.3434,0,0.462,0.4727,0.483,0.4974,0.5086,0.5181,0.5293,0.5285,0.5428,0.5404,0.5364,0.5275,0.5226,0.4864,0.4817,0.4842,0.5257,0.5007,0.6054,0.4923,0.4732,0.4692,0.4734,0.4549,0.4562,0.4572,0.4579,0.4585,0.4611,0.4696,0.4937,0.5007,0.5111,0.5281,0.5353,0.5524,0.5569,0.5709,0.5719,0.5815,0.5724,0.5787,0.5739,0.578,0.6158,0.5338,0.5177,0.5949,0.5905,0.5902,0.5898,0.4728,0.471,0.4695,0.4683,0,0.4597,0.4701,0.4868,0.5073,0.5134,0.5274,0.5434,0.5518,0.5677,0.5782,0.5843,0.5985,0.6066,0.6245,0.6465,0.6373,0.6432,0.6372,0.5821,0.57,0.5985,0.5963,0.6004,0.5988,0.5975,0.5964,0.5955,0,0.4595,0.4705,0.4867,0.4951,0.5117,0.5235,0.5412,0.5552,0.5706,0.5789,0.5967,0.6027,0.626,0.6373,0.6498,0.6423,0.67,0.6316,0.6271,0.5861,0.5781,0.6588,0.6558,0.6837,0.6835,0.6834,0.6833,0,0.4564,0.4714,0.484,0.4899,0.5084,0.5191,0.5305,0.5496,0.5578,0.5813,0.588,0.6113,0.6195,0.637,0.6449,0.6432,0.664,0.662,0.6294,0.6262,0.5827,0.574,0.6832,0.6832,0.6832,0.6831,0.6831,0,0.4557,0.4641,0.4786,0.4944,0.4993,0.5098,0.5311,0.5418,0.5613,0.5708,0.5884,0.5957,0.6139,0.613,0.6351,0.6272,0.6357,0.6393,0.6399,0.5913,0.5784,0.5431,0.5457,0.6397,0.6394,0.639,0.6388,0,0.4509,0.4632,0.4679,0.4836,0.4923,0.5029,0.5139,0.5282,0.5406,0.5562,0.5687,0.5825,0.5845,0.593,0.6051,0.6095,0.6224,0.6105,0.6205,0.6207,0.5761,0.5887,0.5391,0.5443,0.6346,0.635,0.6354,0,0.4454,0.4581,0.4604,0.4661,0.4797,0.4891,0.5021,0.5164,0.5267,0.5423,0.5561,0.5713,0.5787,0.5818,0.5851,0.595,0.6146,0.5913,0.5914,0.5952,0.6357,0.5887,0.5869,0.616,0.6165,0.617,0.6321,0,0.4472,0.4509,0.457,0.4623,0.4719,0.484,0.492,0.5043,0.5132,0.5199,0.5386,0.5464,0.558,0.5622,0.5604,0.579,0.5748,0.5717,0.5637,0.5797,0.5836,0.5863,0.55,0.5496,0.5494,0.5492,0,0,0.4392,0.4406,0.4438,0.45,0.4575,0.4664,0.475,0.4833,0.498,0.5047,0.506,0.5254,0.5291,0.542,0.5484,0.5494,0.5522,0.5471,0.5708,0.5732,0.5754,0.58,0.5829,0.5487,0.5486,0.5485,0.5484,0,0.4361,0.4354,0.4383,0.4453,0.4567,0.4616,0.4668,0.4789,0.4861,0.4989,0.4994,0.5115,0.5202,0.5251,0.5272,0.5443,0.5415,0.5462,0.5573,0.5681,0.5709,0.5733,0.5784,0.5812,0.5477,0.5478,0.5478,0,0.4289,0.429,0.4295,0.4343,0.4421,0.4501,0.4513,0.466,0.4731,0.472,0.4867,0.4916,0.4936,0.5058,0.5117,0.5073,0.5311,0.5223,0.5238,0.5235,0.534,0.5373,0.5401,0.503,0.5029,0.5028,0,0,0.4259,0.4264,0.4297,0.4331,0.4377,0.4461,0.4537,0.4593,0.4676,0.4729,0.478,0.4835,0.489,0.494,0.4987,0.5099,0.5103,0.5172,0.5193,0.521,0.5217,0.5326,0.5357,0.5023,0.5023,0.5023,0,0,0.4265,0.4255,0.4232,0.4251,0.4342,0.4432,0.4536,0.4572,0.4679,0.4703,0.4701,0.4715,0.4847,0.4841,0.4781,0.4977,0.4886,0.4899,0.4992,0.5018,0.5038,0.5033,0.4719,0,0,0,0,0,0.4218,0.4241,0.4217,0.4223,0.4284,0.4411,0.4438,0.4525,0.454,0.4624,0.467,0.4644,0.4813,0.4759,0.4772,0.487,0.4964,0.4975,0.4985,0.513,0.5157,0.518,0,0,0,0,0,0,0.422,0.4216,0.422,0.4283,0.4302,0.4406,0.4385,0.441,0.4534,0.4545,0.4634,0.4643,0.4633,0.4751,0.4763,0.4857,0.4715,0.4968,0.4977,0.4985,0.5139,0.5162,0.5181,0,0,0,0,0,0.4222,0.422,0.4267,0.4289,0.4305,0.4425,0.4384,0.4406,0.4522,0.4543,0.456,0.4594,0.4632,0.4646,0.4758,0.4853,0.4707,0.4711,0.4974,0.4981,0.4987,0.515,0,0,0,0,0,0,0.4224,0.4265,0.4276,0.429,0.4285,0.4428,0.4439,0.4401,0.4514,0.4533,0.4492,0.4497,0.4631,0.4642,0.4653,0.4855,0.47,0.4704,0.4707,0.498,0.4985,0.499,0,0,0,0,0,0,0.4268,0.4274,0.4283,0.4272,0.4285,0.4429,0.4439,0.4483,0.4512,0.4456,0.4465,0.4493,0.4596,0.464,0.4648,0.4718,0.4695,0.4699,0.4702,0.4704,0.4984,0.4988,0,0,0,0,0,0,0.4275,0.4281,0.4269,0.4279,0.4291,0.4456,0.4472,0.4516,0.4543,0.4448,0.4544,0.4544,0.4591,0.4603,0.4645,0.471,0.4716,0.4695,0.4698,0.47,0.4701,0,0,0,0,0,0,0,0.4281,0.4187,0.4193,0.4285,0.4295,0.4421,0.4425,0.4429,0.4543,0.4543,0.4544,0.4544,0.467,0.4675,0.468,0.4704,0,0,0.4694,0.4697,0,0,0,0,0,0,0,0,0.4191,0.4188,0.4194,0.4197,0.42,0.4422,0.4425,0.4428,0.4543,0.4543,0.4544,0.4544,0.4671,0.4675,0.4679,0,0,0,0,0,0,0,0,0,0,0,0,0,0,0,0.4194,0.4197,0,0.4422,0.4425,0.4427,0.4543,0.4543,0.4543,0.4544,0.4672,0.4675,0.4679,0,0,0,0,0,0,0,0,0,0,0,0,0,0,0,0,0,0,0,0,0,0,0,0,0,0,0,0,0,0,0,0,0,0,0,0,0,0,0,0,0,0,0,0,0,0,0,0,0,0,0,0,0,0,0,0,0,0,0,0,0,0,0,0,0,0,0,0,0]}],[{"header":{"parameterUnit":"kt","parameterCategory":2,"dx":1,"dy":1,"la1":30.253999710083008,"la2":30.299108505249023,"lo1":-89.0895004272461,"lo2":-89.04439544677734,"nx":28,"ny":28,"refTime":"2022-10-14T21:00:00:Z","depth":"2","parameterNumber":3,"parameterNumberName":"V-component_of_CURRENTS"},"data":[0.0528,0.0605,0.0652,0.0673,0.0626,0.062,0.0697,0.1026,0.1245,0.1668,0.1736,0.1904,0.153,0.1137,0.0828,0.0523,0.0461,0.0452,0.0625,0.0599,0.0606,0.0397,0.0332,0,0,0,0,0,0.0504,0.0553,0.057,0.0571,0.0566,0.0473,0.0589,0.0747,0.1148,0.1391,0.1728,0.1588,0.154,0.1237,0.071,0.0468,0.0395,0.0372,0.0317,0.0323,0.0327,0.0279,0.0279,0.0278,0.0277,0.0277,0,0,0.0471,0.0509,0.0545,0.0517,0.0462,0.0492,0.0516,0.0681,0.09,0.1179,0.1337,0.1559,0.1336,0.1167,0.0996,0.0644,0.0659,0.0471,0.047,0.047,0.0434,0.0409,0.0472,0.0473,0.0473,0.0474,0.0474,0,0.0475,0.0457,0.0506,0.0474,0.0416,0.0397,0.0365,0.0439,0.0475,0.0634,0.0952,0.1132,0.1131,0.113,0.0953,0.088,0.0568,0.0573,0.0646,0.038,0.0353,0.0351,0.0345,0.0412,0.0412,0.0412,0.0412,0.0413,0.0433,0.0463,0.0464,0.0447,0.0422,0.0354,0.0321,0.0284,0.0329,0.0439,0.0522,0.0625,0.083,0.093,0.0775,0.0747,0.0724,0.0586,0.0445,0.0453,0.0454,0.0444,0.0435,0.0416,0.0416,0.0415,0.0415,0,0.0411,0.0441,0.0482,0.0488,0.0454,0.0413,0.0349,0.0344,0.031,0.0355,0.0337,0.0426,0.0544,0.0542,0.0607,0.0506,0.0551,0.056,0.05,0.05,0.0435,0.0427,0.0528,0.0529,0.053,0.053,0.0531,0,0.0395,0.0422,0.0442,0.0471,0.0451,0.0453,0.04,0.0371,0.0351,0.0378,0.0311,0.0386,0.0319,0.0395,0.0375,0.0421,0.0452,0.037,0.0381,0.0325,0.0319,0.0313,0.0304,0.0383,0.0382,0.0381,0.0381,0,0.0336,0.0425,0.0468,0.0489,0.0528,0.0486,0.0452,0.0413,0.0398,0.0343,0.0334,0.0317,0.0306,0.0302,0.0322,0.0255,0.0412,0.0341,0.035,0.0351,0.0314,0.0309,0.038,0.038,0.038,0.0379,0.0379,0,0.0333,0.0397,0.0465,0.0504,0.0511,0.0492,0.0454,0.0442,0.0402,0.035,0.0303,0.026,0.0268,0.0201,0.025,0.0203,0.0196,0.022,0.0224,0.0217,0.0203,0.0223,0.0285,0.0262,0.0261,0.026,0.0259,0,0.0273,0.0376,0.0405,0.0449,0.0491,0.045,0.0447,0.0408,0.0346,0.0309,0.0273,0.0236,0.0171,0.0126,0.0141,0.017,0.0186,0.0139,0.0184,0.0186,0.0178,0.0243,0.0189,0.0267,0.0244,0.0246,0.0247,0,0.0229,0.0326,0.0327,0.0353,0.037,0.037,0.0361,0.0345,0.0313,0.0235,0.0216,0.02,0.013,0.0129,0.0104,0.0124,0.0165,0.0071,0.0072,0.0103,0.0222,0.0222,0.0233,0.014,0.0142,0.0143,0.0235,0,0.0233,0.0271,0.0291,0.0345,0.0344,0.0346,0.0325,0.0278,0.0193,0.0159,0.0123,0.0101,0.0068,0.0068,0.0049,0.0078,0.0056,0.0048,0.0016,0.0054,0.009,0.0099,-0.0021,-0.0022,-0.0023,-0.0023,0,0,0.0163,0.0234,0.0237,0.0285,0.0287,0.0222,0.0247,0.0216,0.0155,0.0128,0.0066,0.0031,0.0009,0.0045,0.004,0.0036,0.0031,-0.0034,0.0032,0.0039,0.0044,0.008,0.0089,-0.0024,-0.0024,-0.0024,-0.0024,0,0.0186,0.0194,0.0236,0.0247,0.0238,0.0226,0.0211,0.0173,0.0125,0.0089,0.0059,0.0037,-0.002,-0.0004,-0.0004,0.0025,-0.0017,-0.0011,-0.001,0.0027,0.0034,0.004,0.0076,0.0085,-0.0026,-0.0026,-0.0026,0,0.0168,0.0196,0.0207,0.0239,0.0225,0.0245,0.0186,0.0154,0.0143,0.0081,0.0025,-0.0001,-0.0013,-0.0024,-0.0042,-0.0064,-0.0054,-0.0084,-0.008,-0.0085,-0.0048,-0.004,-0.0033,-0.0125,-0.0125,-0.0125,0,0,0.0181,0.0215,0.0229,0.0243,0.0245,0.0207,0.0188,0.0148,0.0116,0.0086,0.0028,-0.0016,-0.0017,-0.0051,-0.006,-0.0081,-0.007,-0.0095,-0.0091,-0.0087,-0.0089,-0.0052,-0.0044,-0.0126,-0.0126,-0.0126,0,0,0.0173,0.0214,0.0201,0.0232,0.0223,0.0208,0.0188,0.0144,0.0095,0.0058,0.001,-0.0005,-0.0034,-0.0061,-0.007,-0.0094,-0.0112,-0.0111,-0.0089,-0.0084,-0.0079,-0.0077,-0.0122,0,0,0,0,0,0.0197,0.0223,0.0213,0.0217,0.0223,0.0229,0.0223,0.0163,0.0101,0.0091,0.004,-0.0008,-0.0065,-0.0073,-0.0083,-0.0099,-0.0142,-0.0139,-0.0136,-0.011,-0.0104,-0.0099,0,0,0,0,0,0,0.0198,0.0208,0.0211,0.0208,0.0207,0.0229,0.0173,0.0158,0.0101,0.0088,0.0007,-0.0008,-0.0032,-0.0072,-0.008,-0.0094,-0.0119,-0.0141,-0.0138,-0.0136,-0.0108,-0.0103,-0.0099,0,0,0,0,0,0.02,0.0207,0.0238,0.0204,0.0204,0.014,0.017,0.0156,0.0095,0.0058,0.0039,0.0043,-0.0028,-0.0042,-0.0077,-0.009,-0.0114,-0.0117,-0.0139,-0.0137,-0.0136,-0.0106,0,0,0,0,0,0,0.02,0.0186,0.0236,0.0231,0.0176,0.0134,0.0129,0.0156,0.0065,0.0049,0.0097,0.0089,-0.0025,-0.0036,-0.0046,-0.0086,-0.011,-0.0113,-0.0115,-0.0138,-0.0136,-0.0135,0,0,0,0,0,0,0.0181,0.0183,0.0233,0.0202,0.0193,0.0129,0.0125,0.0108,0.0063,0.0109,0.01,0.0094,-0.0026,-0.0032,-0.004,-0.0064,-0.0107,-0.011,-0.0111,-0.0113,-0.0137,-0.0135,0,0,0,0,0,0,0.018,0.0182,0.0202,0.0196,0.0188,0.0136,0.0109,0.0107,0.007,0.0113,0.0062,0.0058,-0.0021,-0.003,-0.0035,-0.0055,-0.0062,-0.0107,-0.0109,-0.011,-0.0111,0,0,0,0,0,0,0,0.0179,0.0191,0.0261,0.0191,0.0184,0.0193,0.0192,0.0191,0.007,0.0066,0.0063,0.006,-0.0092,-0.0095,-0.0097,-0.0048,0,0,-0.0107,-0.0108,0,0,0,0,0,0,0,0,0.0187,0.019,0.0261,0.026,0.026,0.0193,0.0192,0.0191,0.0069,0.0066,0.0064,0.0061,-0.0092,-0.0095,-0.0097,0,0,0,0,0,0,0,0,0,0,0,0,0,0,0,0.0261,0.026,0,0.0193,0.0192,0.0191,0.0069,0.0066,0.0064,0.0062,-0.0093,-0.0095,-0.0097,0,0,0,0,0,0,0,0,0,0,0,0,0,0,0,0,0,0,0,0,0,0,0,0,0,0,0,0,0,0,0,0,0,0,0,0,0,0,0,0,0,0,0,0,0,0,0,0,0,0,0,0,0,0,0,0,0,0,0,0,0,0,0,0,0,0,0,0,0]}]],[[{"header":{"parameterUnit":"kt","parameterCategory":2,"dx":1,"dy":1,"la1":30.253999710083008,"la2":30.299108505249023,"lo1":-89.0895004272461,"lo2":-89.04439544677734,"nx":28,"ny":28,"refTime":"2022-10-14T21:00:00:Z","depth":"4","parameterNumber":2,"parameterNumberName":"U-component_of_CURRENTS"},"data":[0.0065,0.0097,0.0091,0.011,0.0133,0.0219,0.0307,0.048,0.0535,0.0821,0.0875,0.1142,0.1241,0.1358,0.1397,0.1428,0.1391,0.1689,0.1686,0.1689,0.1697,0.1705,0.1678,0,0,0,0,0,0.0088,0.0085,0.0119,0.0216,0.0276,0.0349,0.0523,0.0644,0.0927,0.0973,0.1119,0.1236,0.137,0.1477,0.143,0.1603,0.162,0.1544,0.1534,0.1694,0.1703,0.1674,0,0,0,0,0,0,0.0105,0.0122,0.0178,0.0288,0.0389,0.0447,0.0599,0.0732,0.0882,0.1204,0.126,0.1488,0.1688,0.1705,0.1721,0.1715,0.1658,0.159,0.1604,0.1614,0.1573,0.146,0.1436,0,0,0,0,0,0.0125,0.0163,0.0236,0.0339,0.0463,0.0609,0.0814,0.0863,0.1137,0.1333,0.1482,0.1591,0.1712,0.1746,0.1803,0.1774,0.1834,0.1836,0.1839,0.1768,0.1696,0.1649,0.1642,0.1738,0.1739,0.174,0.174,0,0.0171,0.0188,0.0354,0.0404,0.0508,0.0721,0.0832,0.1087,0.1185,0.1498,0.1521,0.1725,0.1841,0.182,0.1899,0.1867,0.1879,0.1862,0.1787,0.171,0.1663,0.1652,0.1642,0.1747,0.1747,0.1746,0.1746,0,0.0191,0.0254,0.0334,0.0498,0.0588,0.0707,0.0977,0.1078,0.1299,0.1483,0.1554,0.1746,0.1835,0.1876,0.1955,0.1899,0.1882,0.1892,0.1921,0.1878,0.1663,0.1649,0.176,0.1757,0.1755,0.1753,0.1751,0,0.0245,0.0305,0.0425,0.0463,0.061,0.0721,0.0932,0.108,0.1261,0.1404,0.1585,0.1675,0.1771,0.184,0.1838,0.1832,0.1915,0.1788,0.1751,0.1791,0.1777,0.1754,0.1734,0.1928,0.1928,0.1928,0.1928,0,0.0232,0.0361,0.0425,0.0466,0.06,0.0704,0.0828,0.1021,0.1145,0.1396,0.1485,0.1606,0.1696,0.1744,0.179,0.1756,0.1866,0.179,0.1735,0.1723,0.1746,0.1726,0.1928,0.1928,0.1928,0.1927,0.1927,0,0.0276,0.033,0.0408,0.0539,0.0575,0.0651,0.0839,0.0963,0.1155,0.1269,0.1403,0.1467,0.1575,0.1578,0.1664,0.1634,0.1687,0.1678,0.1678,0.1561,0.1446,0.1398,0.159,0.1588,0.1586,0.1584,0.1582,0,0.0262,0.0334,0.0386,0.0476,0.052,0.0609,0.0715,0.0831,0.0975,0.1127,0.1196,0.1326,0.1325,0.1396,0.1473,0.1475,0.1562,0.1504,0.1512,0.1511,0.1388,0.1549,0.1551,0.1554,0.1558,0.156,0.1562,0,0.0233,0.0314,0.0332,0.0389,0.0479,0.0497,0.0625,0.0741,0.0852,0.0971,0.1105,0.121,0.1264,0.1288,0.1298,0.1367,0.1506,0.1363,0.1363,0.133,0.162,0.1522,0.1528,0.1529,0.1534,0.1537,0.1543,0,0.0268,0.0311,0.0321,0.04,0.0425,0.0465,0.0549,0.0635,0.0728,0.0795,0.0943,0.0976,0.1065,0.1101,0.1091,0.1244,0.1202,0.118,0.1111,0.1251,0.1228,0.1244,0.102,0.1017,0.1015,0.1014,0,0,0.0267,0.0295,0.0304,0.0346,0.038,0.04,0.0445,0.0495,0.0565,0.0638,0.0654,0.0793,0.0818,0.0896,0.0978,0.0975,0.0988,0.0997,0.1181,0.12,0.1217,0.1204,0.1221,0.101,0.1009,0.1009,0.1008,0,0.0275,0.0294,0.031,0.0332,0.0375,0.0381,0.0397,0.0436,0.0492,0.0585,0.0585,0.0656,0.0742,0.0774,0.0789,0.0932,0.0913,0.0982,0.1096,0.1161,0.1182,0.1201,0.1193,0.121,0.1003,0.1003,0.1003,0,0.03,0.032,0.0315,0.0333,0.0338,0.0363,0.0336,0.0349,0.0407,0.0359,0.048,0.0499,0.0511,0.0614,0.0662,0.063,0.0827,0.0773,0.0785,0.0798,0.086,0.0886,0.0909,0.061,0.0609,0.0608,0,0,0.0325,0.0332,0.0342,0.0335,0.0348,0.0341,0.0335,0.034,0.0344,0.0347,0.0392,0.0441,0.0477,0.0514,0.0551,0.0636,0.0624,0.0725,0.0744,0.0759,0.078,0.0847,0.0872,0.0603,0.0603,0.0603,0,0,0.0314,0.0328,0.035,0.0341,0.0345,0.031,0.0306,0.0305,0.0315,0.0338,0.0331,0.0337,0.0432,0.0433,0.0368,0.0569,0.0493,0.0505,0.0569,0.0591,0.061,0.0624,0.0342,0,0,0,0,0,0.0344,0.0332,0.0354,0.0354,0.0333,0.0314,0.0308,0.029,0.0296,0.0292,0.0316,0.0308,0.0416,0.0357,0.0362,0.047,0.0542,0.0553,0.0563,0.0664,0.0688,0.0709,0,0,0,0,0,0,0.0343,0.0343,0.0353,0.0324,0.0319,0.0313,0.0297,0.029,0.0295,0.0293,0.0303,0.0307,0.03,0.0353,0.0359,0.0463,0.034,0.0546,0.0555,0.0564,0.0672,0.0692,0.0709,0,0,0,0,0,0.0343,0.0343,0.0321,0.0322,0.0318,0.0296,0.0297,0.0292,0.0292,0.0293,0.0296,0.0284,0.03,0.0306,0.0356,0.0462,0.0336,0.0338,0.0552,0.0559,0.0566,0.0682,0,0,0,0,0,0,0.0343,0.0323,0.0319,0.0316,0.0329,0.0296,0.0292,0.0293,0.0293,0.0294,0.0275,0.0274,0.0299,0.0304,0.0309,0.0465,0.0333,0.0335,0.0337,0.0558,0.0563,0.0568,0,0,0,0,0,0,0.0323,0.0321,0.0317,0.0326,0.0324,0.0296,0.0292,0.0313,0.0296,0.0274,0.0272,0.0275,0.0322,0.0303,0.0307,0.0337,0.0331,0.0333,0.0334,0.0335,0.0562,0.0567,0,0,0,0,0,0,0.0321,0.0319,0.0326,0.0325,0.0323,0.0285,0.0315,0.031,0.0256,0.0275,0.0257,0.0257,0.0323,0.0325,0.0305,0.0333,0.0336,0.0331,0.0332,0.0333,0.0334,0,0,0,0,0,0,0,0.032,0.0346,0.0343,0.0323,0.0322,0.0292,0.0291,0.0289,0.0256,0.0256,0.0257,0.0257,0.032,0.0322,0.0324,0.033,0,0,0.0331,0.0332,0,0,0,0,0,0,0,0,0.0346,0.0346,0.0342,0.0342,0.0342,0.0292,0.0291,0.029,0.0256,0.0256,0.0257,0.0257,0.0321,0.0322,0.0324,0,0,0,0,0,0,0,0,0,0,0,0,0,0,0,0.0342,0.0342,0,0.0292,0.0291,0.029,0.0256,0.0256,0.0257,0.0257,0.0321,0.0322,0.0324,0,0,0,0,0,0,0,0,0,0,0,0,0,0,0,0,0,0,0,0,0,0,0,0,0,0,0,0,0,0,0,0,0,0,0,0,0,0,0,0,0,0,0,0,0,0,0,0,0,0,0,0,0,0,0,0,0,0,0,0,0,0,0,0,0,0,0,0,0]}],[{"header":{"parameterUnit":"kt","parameterCategory":2,"dx":1,"dy":1,"la1":30.253999710083008,"la2":30.299108505249023,"lo1":-89.0895004272461,"lo2":-89.04439544677734,"nx":28,"ny":28,"refTime":"2022-10-14T21:00:00:Z","depth":"4","parameterNumber":3,"parameterNumberName":"V-component_of_CURRENTS"},"data":[0.0771,0.086,0.0907,0.1038,0.1133,0.1301,0.1398,0.1444,0.1379,0.142,0.1217,0.1227,0.0864,0.1086,0.0548,0.0486,0.0347,0.0099,0.0094,-0.0106,-0.0106,-0.0106,-0.0025,0,0,0,0,0,0.079,0.0835,0.0933,0.1081,0.1218,0.1337,0.1473,0.1521,0.1602,0.1506,0.1485,0.1289,0.096,0.0798,0.0559,0.0518,0.018,0.0231,0.0064,-0.0106,-0.0106,-0.0027,0,0,0,0,0,0,0.0801,0.0847,0.0948,0.1098,0.1257,0.1368,0.1469,0.1492,0.153,0.1494,0.147,0.1262,0.1151,0.0784,0.0544,0.0307,0.0232,0.0141,0.0128,0.0126,0.0224,0.0347,0.0288,0,0,0,0,0,0.0796,0.086,0.0931,0.1101,0.1237,0.1385,0.1536,0.1537,0.1594,0.1603,0.1474,0.1283,0.1057,0.0711,0.048,0.0224,0.001,-0.0027,-0.003,-0.005,0.0018,0.001,0.0023,-0.0104,-0.0104,-0.0104,-0.0104,0,0.0821,0.0855,0.1022,0.1088,0.1171,0.134,0.1429,0.1508,0.1521,0.1506,0.1449,0.129,0.1148,0.0708,0.0452,0.0098,0.0076,-0.0025,-0.0046,0.0021,0.0009,0.0023,0.0036,-0.0104,-0.0104,-0.0104,-0.0104,0,0.0833,0.0878,0.0949,0.1052,0.1133,0.122,0.1378,0.1402,0.1419,0.1427,0.141,0.1211,0.0998,0.0721,0.0425,0.0272,0.0043,0.001,0.012,0.0104,0.0029,0.0043,-0.0103,-0.0103,-0.0103,-0.0103,-0.0103,0,0.0852,0.0895,0.0993,0.1019,0.1121,0.1134,0.1244,0.1261,0.1239,0.1252,0.1147,0.1076,0.0796,0.0617,0.0438,0.0223,0.0187,0.0093,0.0066,0.0123,0.0135,0.008,0.009,0.0011,0.0012,0.0012,0.0013,0,0.0854,0.0913,0.0959,0.0971,0.1004,0.1054,0.1104,0.1095,0.1116,0.1087,0.1062,0.0866,0.0795,0.061,0.0428,0.0433,0.0179,0.0149,0.0105,0.0109,0.0089,0.0097,0.0014,0.0014,0.0015,0.0015,0.0015,0,0.0854,0.0888,0.0928,0.0975,0.0986,0.1012,0.1038,0.1055,0.0998,0.0993,0.0902,0.0826,0.0664,0.0653,0.0403,0.047,0.0402,0.0303,0.0296,0.0289,0.0291,0.0306,0.0238,0.0241,0.0243,0.0244,0.0246,0,0.0844,0.0881,0.0896,0.0928,0.0946,0.0947,0.0945,0.093,0.0938,0.0914,0.0783,0.0743,0.0684,0.067,0.0567,0.0438,0.0381,0.0456,0.0293,0.0287,0.0345,0.0283,0.0389,0.0274,0.027,0.0268,0.0266,0,0.0827,0.0873,0.0884,0.0905,0.0906,0.0916,0.0915,0.0904,0.0923,0.0871,0.0847,0.0714,0.0687,0.0626,0.0564,0.0483,0.042,0.0492,0.0486,0.0478,0.0281,0.0314,0.0301,0.0404,0.0401,0.0398,0.0285,0,0.081,0.0846,0.0865,0.0874,0.088,0.0902,0.0892,0.0907,0.0924,0.0905,0.0837,0.0747,0.0666,0.0625,0.0597,0.0502,0.0516,0.0489,0.0497,0.0459,0.0415,0.04,0.0559,0.0558,0.0557,0.0556,0,0,0.0786,0.0823,0.0841,0.0851,0.0859,0.0861,0.0873,0.0879,0.0877,0.0874,0.0888,0.0747,0.0695,0.058,0.0573,0.0545,0.0523,0.0586,0.0478,0.047,0.0462,0.0419,0.0406,0.0555,0.0555,0.0554,0.0554,0,0.0772,0.0809,0.0836,0.0837,0.0851,0.0844,0.0857,0.0868,0.0892,0.0876,0.0832,0.0765,0.0719,0.0639,0.0591,0.0546,0.053,0.0544,0.0561,0.0475,0.0468,0.0461,0.0418,0.0407,0.0552,0.0552,0.0552,0,0.0744,0.0758,0.0778,0.0796,0.0807,0.0805,0.0818,0.0847,0.0852,0.0815,0.0831,0.0776,0.0695,0.0647,0.0626,0.063,0.0538,0.0578,0.0579,0.0572,0.0482,0.0474,0.0467,0.0563,0.0564,0.0564,0,0,0.0728,0.0763,0.0757,0.0788,0.0795,0.0803,0.0816,0.0828,0.082,0.083,0.0815,0.0773,0.0709,0.0695,0.0642,0.0608,0.0563,0.0585,0.0584,0.0584,0.0577,0.0488,0.048,0.0567,0.0567,0.0567,0,0,0.0715,0.0731,0.0735,0.0772,0.0772,0.0772,0.0801,0.081,0.0815,0.083,0.0794,0.0785,0.0744,0.0712,0.0746,0.0652,0.0645,0.0638,0.07,0.0699,0.0698,0.0705,0.0734,0,0,0,0,0,0.069,0.0723,0.0726,0.073,0.076,0.0763,0.0768,0.0791,0.0816,0.0837,0.0814,0.0808,0.0709,0.0738,0.0728,0.0719,0.0595,0.059,0.0585,0.0655,0.0653,0.0652,0,0,0,0,0,0,0.0691,0.0697,0.0724,0.0724,0.073,0.0763,0.0772,0.078,0.0815,0.0821,0.0812,0.0806,0.0778,0.0742,0.0733,0.0725,0.0736,0.0593,0.0589,0.0585,0.0654,0.0653,0.0652,0,0,0,0,0,0.0692,0.0697,0.0746,0.0724,0.0729,0.0756,0.0774,0.078,0.0824,0.0778,0.0778,0.0844,0.0777,0.077,0.0737,0.0729,0.0742,0.0739,0.059,0.0587,0.0584,0.0654,0,0,0,0,0,0,0.0693,0.0708,0.0747,0.0748,0.0731,0.0756,0.0763,0.078,0.078,0.078,0.0804,0.0807,0.0777,0.0771,0.0765,0.0732,0.0747,0.0744,0.0742,0.0588,0.0585,0.0583,0,0,0,0,0,0,0.0705,0.071,0.0748,0.0756,0.0759,0.0756,0.0763,0.0727,0.0777,0.0806,0.0809,0.0805,0.0762,0.0772,0.0767,0.0712,0.075,0.0747,0.0745,0.0744,0.0586,0.0584,0,0,0,0,0,0,0.0707,0.0711,0.0757,0.0759,0.0762,0.0785,0.0722,0.0742,0.0821,0.0804,0.0824,0.0825,0.076,0.0757,0.0768,0.0715,0.0713,0.075,0.0748,0.0747,0.0746,0,0,0,0,0,0,0,0.0709,0.068,0.0732,0.0761,0.0763,0.0761,0.0762,0.0763,0.0821,0.0822,0.0823,0.0825,0.0767,0.0764,0.0761,0.0718,0,0,0.075,0.0749,0,0,0,0,0,0,0,0,0.0678,0.068,0.0732,0.0731,0.0731,0.0761,0.0762,0.0763,0.0821,0.0822,0.0823,0.0824,0.0766,0.0764,0.0761,0,0,0,0,0,0,0,0,0,0,0,0,0,0,0,0.0731,0.0731,0,0.0762,0.0762,0.0763,0.0822,0.0822,0.0823,0.0824,0.0766,0.0763,0.0761,0,0,0,0,0,0,0,0,0,0,0,0,0,0,0,0,0,0,0,0,0,0,0,0,0,0,0,0,0,0,0,0,0,0,0,0,0,0,0,0,0,0,0,0,0,0,0,0,0,0,0,0,0,0,0,0,0,0,0,0,0,0,0,0,0,0,0,0,0]}]]]